LKKB Weather Reports


time (UTC)temp
F
wind
direction
speed
knots
gust
knots
rain 1hr
in
rain 24hr
in
rain mn
in
humidity
%
barometer
mb
20260506050210 55 220 7.8 0.0 0.00 0.00 0.00 87 1006.0
20260506043103 54 220 8.7 0.0 0.00 0.00 0.00 93 1006.0
20260506042051 54 210 10.4 0.0 0.00 0.00 0.00 87
20260506033102 54 220 7.0 0.0 0.00 0.00 0.00 93 1006.0
20260506031854 54 220 7.8 0.0 0.00 0.00 0.00 93
20260506030103 54 210 7.8 0.0 0.00 0.00 0.00 93 1006.0
20260506023103 54 220 7.0 0.0 0.00 0.00 0.00 93 1006.0
20260506021854 54 200 4.3 0.0 0.00 0.00 0.00 99
20260506020213 55 200 4.3 0.0 0.00 0.00 0.00 93 1006.0
20260506015004 55 180 4.3 0.0 0.00 0.00 0.00 93 1006.0
20260506013102 54 170 2.6 0.0 0.00 0.00 0.00 100 1006.0
20260506012702 54 170 2.6 0.0 0.00 0.00 0.00 100 1006.0
20260506011953 55 150 1.7 0.0 0.00 0.00 0.00 93
20260506011902 54 160 4.3 0.0 0.00 0.00 0.00 93 1006.0
20260506003209 55 0 1.7 0.0 0.00 0.00 0.00 93 1006.0
20260506001851 55 280 4.3 0.0 0.00 0.00 0.00 93
20260505233103 55 0 0.9 0.0 0.00 0.00 0.00 93 1006.0
20260505231852 55 290 1.7 0.0 0.00 0.00 0.00 93
20260505230212 55 290 4.3 0.0 0.00 0.00 0.00 93 1006.0
20260505224003 55 290 6.1 0.0 0.00 0.00 0.00 93 1006.0
20260505223103 57 290 7.0 0.0 0.00 0.00 0.00 93 1006.0
20260505221851 57 270 12.2 0.0 0.00 0.00 0.00 87
20260505220703 57 270 11.3 0.0 0.00 0.00 0.00 93 1006.0
20260505213102 59 260 11.3 0.0 0.00 0.00 0.00 87 1006.0
20260505211925 61 280 7.8 0.0 0.00 0.00 0.00 77
20260505211808 61 260 11.3 0.0 0.00 0.00 0.00 82 1006.0
20260505210218 61 290 7.0 0.0 0.00 0.00 0.00 77 1006.0
20260505203102 64 240 11.3 0.0 0.00 0.00 0.00 59 1004.0
20260505202903 64 240 11.3 0.0 0.00 0.00 0.00 59 1004.0
20260505201908 63 320 4.3 0.0 0.00 0.00 0.00 63
20260505200219 63 320 5.2 0.0 0.00 0.00 0.00 63 1003.0
20260505193103 63 340 5.2 0.0 0.00 0.00 0.00 67 1003.0
20260505191925 63 30 4.3 0.0 0.00 0.00 0.00 67
20260505190211 63 40 5.2 0.0 0.00 0.00 0.00 67 1004.0
20260505183102 66 70 8.7 0.0 0.00 0.00 0.00 55 1004.0
20260505181910 66 110 10.4 0.0 0.00 0.00 0.00 52
20260505180103 66 110 10.4 0.0 0.00 0.00 0.00 55 1004.0
20260505174403 66 120 10.4 0.0 0.00 0.00 0.00 55 1004.0
20260505173102 68 120 13.0 0.0 0.00 0.00 0.00 52 1004.0
20260505171852 68 120 13.9 0.0 0.00 0.00 0.00 52
20260505170103 68 130 13.9 0.0 0.00 0.00 0.00 52 1005.0
20260505163209 75 50 6.1 0.0 0.00 0.00 0.00 33 1004.0
20260505162024 75 60 6.1 0.0 0.00 0.00 0.00 36
20260505153210 75 80 4.3 0.0 0.00 0.00 0.00 36 1005.0
20260505151908 73 80 4.3 0.0 0.00 0.00 0.00 38
20260505150212 73 110 2.6 0.0 0.00 0.00 0.00 40 1005.0
20260505140211 75 20 5.2 0.0 0.00 0.00 0.00 38 1005.0
20260505123103 72 30 4.3 0.0 0.00 0.00 0.00 43 1007.0
20260505121852 73 10 6.1 0.0 0.00 0.00 0.00 40
20260505120103 72 70 4.3 0.0 0.00 0.00 0.00 43 1007.0
20260505113103 72 130 2.6 0.0 0.00 0.00 0.00 43 1007.0
20260505111851 72 340 6.1 0.0 0.00 0.00 0.00 43
20260505110208 72 10 5.2 0.0 0.00 0.00 0.00 46 1007.0
20260505101852 70 350 4.3 0.0 0.00 0.00 0.00 43
20260505093102 68 20 4.3 0.0 0.00 0.00 0.00 52 1008.0
20260505091851 68 10 6.1 0.0 0.00 0.00 0.00 56
20260505083102 66 350 5.2 0.0 0.00 0.00 0.00 59 1008.0
20260505081853 64 40 4.3 0.0 0.00 0.00 0.00 63
20260505080103 64 20 4.3 0.0 0.00 0.00 0.00 63 1008.0
20260505073103 63 30 5.2 0.0 0.00 0.00 0.00 67 1008.0
20260505071851 63 30 4.3 0.0 0.00 0.00 0.00 67
20260505070211 63 10 4.3 0.0 0.00 0.00 0.00 67 1009.0
20260505063102 61 360 2.6 0.0 0.00 0.00 0.00 77 1008.0
20260505061854 61 10 4.3 0.0 0.00 0.00 0.00 72